• In Russia
  • List of Countries
  • For 7 days
  • Water Temperature
  • Satellite Maps
  • Weather Map
  • Weather Widgets
  • user-avatar
    Login

    Hourly Weather Eisenstadt

    Today, 20 September, Wednesday

    Time Temperature Precipitation Wind Pressure Humidity
    00:00 +7°C° 1.2 mm 4 mps 720 mmHg 94%
    01:00 +7°C° 1.2 mm 4 mps 720 mmHg 93%
    02:00 +7°C° 0.6 mm 5 mps 720 mmHg 92%
    03:00 +7°C° 0.6 mm 5 mps 720 mmHg 91%
    04:00 +7°C° 0.6 mm 6 mps 720 mmHg 90%
    05:00 +7°C° 0.2 mm 6 mps 720 mmHg 89%
    06:00 +7°C° 0.2 mm 6 mps 720 mmHg 88%
    07:00 +7°C° 0.2 mm 6 mps 721 mmHg 87%
    08:00 +8°C° 0.1 mm 6 mps 721 mmHg 84%
    09:00 +9°C° 0.1 mm 7 mps 721 mmHg 81%
    10:00 +10°C° 0.1 mm 7 mps 722 mmHg 78%
    11:00 +10°C° 0.1 mm 7 mps 722 mmHg 75%
    12:00 +11°C° 0.1 mm 7 mps 722 mmHg 72%
    13:00 +11°C° 0.1 mm 7 mps 722 mmHg 69%
    14:00 +11°C° 0 mm 7 mps 722 mmHg 68%
    15:00 +11°C° 0 mm 7 mps 722 mmHg 67%
    16:00 +13°C° 0 mm 6 mps 722 mmHg 66%
    17:00 +12°C° 0 mm 5 mps 722 mmHg 71%
    18:00 +10°C° 0 mm 4 mps 722 mmHg 75%
    19:00 +8°C° 0 mm 4 mps 723 mmHg 80%
    20:00 +8°C° 0 mm 4 mps 723 mmHg 81%
    21:00 +8°C° 0 mm 4 mps 723 mmHg 82%
    22:00 +8°C° 0 mm 4 mps 723 mmHg 83%
    23:00 +7°C° 0 mm 4 mps 723 mmHg 83%

    Tomorrow, 21 September, Thursday

    Time Temperature Precipitation Wind Pressure Humidity
    00:00 +7°C° 0 mm 4 mps 723 mmHg 84%
    01:00 +7°C° 0 mm 4 mps 723 mmHg 84%
    02:00 +7°C° 0 mm 4 mps 723 mmHg 84%
    03:00 +7°C° 0 mm 5 mps 723 mmHg 83%
    04:00 +7°C° 0 mm 5 mps 723 mmHg 83%
    05:00 +7°C° 0 mm 5 mps 723 mmHg 82%
    06:00 +8°C° 0 mm 5 mps 723 mmHg 81%
    07:00 +8°C° 0 mm 5 mps 723 mmHg 80%
    08:00 +10°C° 0 mm 6 mps 724 mmHg 74%
    09:00 +11°C° 0 mm 6 mps 724 mmHg 67%
    10:00 +14°C° 0 mm 7 mps 724 mmHg 61%
    11:00 +14°C° 0 mm 6 mps 724 mmHg 58%
    12:00 +15°C° 0 mm 6 mps 723 mmHg 56%
    13:00 +16°C° 0 mm 6 mps 723 mmHg 53%
    14:00 +15°C° 0 mm 6 mps 723 mmHg 55%
    15:00 +15°C° 0 mm 5 mps 723 mmHg 56%
    16:00 +15°C° 0 mm 5 mps 723 mmHg 58%
    17:00 +14°C° 0 mm 4 mps 723 mmHg 64%
    18:00 +12°C° 0 mm 3 mps 723 mmHg 71%
    19:00 +10°C° 0 mm 3 mps 723 mmHg 77%
    20:00 +10°C° 0 mm 3 mps 724 mmHg 78%
    21:00 +10°C° 0 mm 3 mps 724 mmHg 79%
    22:00 +9°C° 0 mm 3 mps 724 mmHg 80%
    23:00 +9°C° 0 mm 3 mps 724 mmHg 80%

    Day after tomorrow, 22 September, Friday

    Time Temperature Precipitation Wind Pressure Humidity
    00:00 +9°C° 0 mm 3 mps 724 mmHg 80%
    01:00 +9°C° 0 mm 3 mps 724 mmHg 81%
    02:00 +8°C° 0 mm 3 mps 724 mmHg 81%
    03:00 +8°C° 0 mm 2 mps 724 mmHg 81%
    04:00 +8°C° 0 mm 2 mps 724 mmHg 82%
    05:00 +8°C° 0 mm 2 mps 725 mmHg 81%
    06:00 +9°C° 0 mm 2 mps 725 mmHg 80%
    07:00 +9°C° 0 mm 2 mps 725 mmHg 78%
    08:00 +12°C° 0 mm 2 mps 725 mmHg 71%
    09:00 +15°C° 0 mm 2 mps 725 mmHg 64%
    10:00 +17°C° 0 mm 3 mps 726 mmHg 56%
    11:00 +18°C° 0 mm 2 mps 726 mmHg 54%
    12:00 +18°C° 0 mm 2 mps 726 mmHg 52%
    13:00 +19°C° 0 mm 2 mps 726 mmHg 50%
    14:00 +19°C° 0 mm 2 mps 726 mmHg 51%
    15:00 +18°C° 0 mm 2 mps 726 mmHg 53%
    16:00 +19°C° 0 mm 1 mps 726 mmHg 54%
    17:00 +16°C° 0 mm 1 mps 726 mmHg 61%
    18:00 +15°C° 0 mm 1 mps 726 mmHg 67%
    19:00 +12°C° 0 mm 0 mps 726 mmHg 74%
    20:00 +12°C° 0 mm 1 mps 726 mmHg 75%
    21:00 +12°C° 0 mm 1 mps 727 mmHg 76%
    22:00 +12°C° 0 mm 1 mps 727 mmHg 77%
    23:00 +11°C° 0 mm 1 mps 727 mmHg 78%

    23 September, Saturday

    Time Temperature Precipitation Wind Pressure Humidity
    00:00 +11°C° 0 mm 1 mps 727 mmHg 79%
    01:00 +11°C° 0 mm 1 mps 727 mmHg 79%
    02:00 +11°C° 0 mm 1 mps 727 mmHg 80%
    03:00 +10°C° 0 mm 1 mps 727 mmHg 80%
    04:00 +10°C° 0 mm 1 mps 727 mmHg 80%
    05:00 +11°C° 0 mm 1 mps 727 mmHg 79%
    06:00 +11°C° 0 mm 1 mps 727 mmHg 78%
    07:00 +12°C° 0 mm 1 mps 728 mmHg 77%
    08:00 +14°C° 0 mm 1 mps 728 mmHg 70%
    09:00 +16°C° 0 mm 1 mps 728 mmHg 63%
    10:00 +20°C° 0 mm 1 mps 728 mmHg 56%
    11:00 +19°C° 0 mm 2 mps 728 mmHg 54%
    12:00 +20°C° 0 mm 2 mps 727 mmHg 52%
    13:00 +20°C° 0 mm 2 mps 727 mmHg 51%
    14:00 +20°C° 0 mm 2 mps 727 mmHg 53%
    15:00 +20°C° 0 mm 2 mps 727 mmHg 55%
    16:00 +19°C° 0 mm 2 mps 727 mmHg 58%
    17:00 +18°C° 0 mm 2 mps 727 mmHg 64%
    18:00 +16°C° 0 mm 1 mps 727 mmHg 70%
    19:00 +14°C° 0 mm 1 mps 727 mmHg 77%
    20:00 +14°C° 0 mm 1 mps 727 mmHg 78%
    21:00 +13°C° 0 mm 1 mps 727 mmHg 80%
    22:00 +13°C° 0 mm 1 mps 727 mmHg 81%
    23:00 +12°C° 0 mm 1 mps 727 mmHg 82%

    24 September, Sunday

    Time Temperature Precipitation Wind Pressure Humidity
    00:00 +12°C° 0 mm 2 mps 726 mmHg 84%
    01:00 +12°C° 0 mm 2 mps 726 mmHg 85%
    02:00 +10°C° 0 mm 2 mps 726 mmHg 85%
    03:00 +10°C° 0 mm 2 mps 726 mmHg 86%
    04:00 +10°C° 0 mm 2 mps 726 mmHg 87%
    05:00 +10°C° 0 mm 2 mps 726 mmHg 85%
    06:00 +10°C° 0 mm 2 mps 726 mmHg 84%
    07:00 +12°C° 0 mm 2 mps 727 mmHg 83%
    08:00 +13°C° 0 mm 3 mps 727 mmHg 75%
    09:00 +14°C° 0 mm 3 mps 727 mmHg 67%
    10:00 +17°C° 0 mm 3 mps 727 mmHg 59%
    11:00 +18°C° 0 mm 4 mps 727 mmHg 56%
    12:00 +19°C° 0 mm 4 mps 727 mmHg 53%
    13:00 +20°C° 0 mm 4 mps 726 mmHg 49%
    14:00 +19°C° 0 mm 4 mps 726 mmHg 51%
    15:00 +19°C° 0 mm 4 mps 726 mmHg 53%
    16:00 +18°C° 0 mm 4 mps 726 mmHg 55%
    17:00 +17°C° 0 mm 3 mps 726 mmHg 61%
    18:00 +14°C° 0 mm 3 mps 726 mmHg 68%
    19:00 +12°C° 0 mm 3 mps 727 mmHg 75%
    20:00 +12°C° 0 mm 3 mps 727 mmHg 77%
    21:00 +11°C° 0 mm 3 mps 727 mmHg 80%
    22:00 +11°C° 0 mm 3 mps 727 mmHg 82%
    23:00 +11°C° 0 mm 3 mps 727 mmHg 83%

    25 September, Monday

    Time Temperature Precipitation Wind Pressure Humidity
    00:00 +11°C° 0 mm 3 mps 727 mmHg 83%
    01:00 +11°C° 0 mm 3 mps 727 mmHg 84%
    02:00 +11°C° 0 mm 3 mps 727 mmHg 84%
    03:00 +11°C° 0 mm 3 mps 727 mmHg 84%
    04:00 +11°C° 0 mm 3 mps 727 mmHg 84%
    05:00 +11°C° 0 mm 3 mps 727 mmHg 83%
    06:00 +11°C° 0 mm 3 mps 727 mmHg 82%
    07:00 +12°C° 0 mm 3 mps 727 mmHg 81%
    08:00 +13°C° 0 mm 3 mps 727 mmHg 77%
    09:00 +14°C° 0 mm 3 mps 727 mmHg 72%
    10:00 +15°C° 0 mm 4 mps 727 mmHg 68%
    11:00 +17°C° 0 mm 4 mps 727 mmHg 66%
    12:00 +18°C° 0 mm 4 mps 727 mmHg 64%
    13:00 +18°C° 0 mm 4 mps 726 mmHg 63%
    14:00 +18°C° 0.2 mm 4 mps 726 mmHg 65%
    15:00 +18°C° 0.2 mm 3 mps 726 mmHg 67%
    16:00 +18°C° 0.2 mm 3 mps 726 mmHg 70%
    17:00 +16°C° 0.1 mm 3 mps 726 mmHg 75%
    18:00 +15°C° 0.1 mm 2 mps 726 mmHg 81%
    19:00 +13°C° 0.1 mm 2 mps 726 mmHg 87%
    20:00 +13°C° 0.1 mm 2 mps 726 mmHg 88%
    21:00 +13°C° 0.1 mm 2 mps 726 mmHg 89%
    22:00 +12°C° 0.1 mm 2 mps 726 mmHg 90%
    23:00 +12°C° 0 mm 2 mps 726 mmHg 91%
    Show more